Regional Weather Roundup
Issued by NWS

Home | Current Version | Previous Version | Text Only | Print | Product List | Glossary On
Versions: 1 2 3 4 5 6 7 8 9 10 11 12 13 14 15 16 17 18 19 20 21 22 23 24 25 26 27 28 29 30 31 32 33 34 35 36 37 38 39 40 41 42 43 44 45 46 47 48 49 50
000
ASUS44 KFWD 310815
RWRTX
NORTH TEXAS HOURLY WEATHER ROUNDUP
NATIONAL WEATHER SERVICE FORT WORTH TX
300 AM CDT THU JUL 31 2014

NOTE: "FAIR" INDICATES FEW OR NO CLOUDS BELOW 12,000 FEET WITH NO
SIGNIFICANT WEATHER AND/OR OBSTRUCTIONS TO VISIBILITY.

TXZ118-119-310900-
DALLAS/FORT WORTH METROPLEX

CITY           SKY/WX    TMP DP  RH WIND       PRES   REMARKS
DFW AIRPORT    CLOUDY    76  69  79 SE5       29.92F
DALLAS LOVE    CLOUDY    75  70  84 SE9       29.92F
FTW MEACHAM    MOCLDY    78  70  76 E8        29.93S
DAL-EXECUTIVE  CLOUDY    80  71  74 E8        29.94S
FTW-ALLIANCE   CLOUDY    76  70  82 NE5       29.94S
FTW-NAS-JRB    MOCLDY    83  69  62 SE6       29.97S
FTW-SPINKS     MOCLDY    80  70  71 CALM      29.94S
ARLINGTON      MOCLDY    80  70  71 E7        29.94S
GRAND PRAIRIE  MOCLDY    80  69  69 E6        29.95F
ADDISON        CLOUDY    73  73 100 SE5       29.94F
MESQUITE       CLOUDY    73  71  94 N13       29.97R
LANCASTER      CLOUDY    78  69  75 NE5       29.97R
$$

TXZ091>094-102>105-117-120-121-131>134-310900-
NORTH CENTRAL TEXAS

CITY           SKY/WX    TMP DP  RH WIND       PRES   REMARKS
SHRMAN/DENISON RAIN      72  70  93 SE6       29.98F
GAINESVILLE    LGT RAIN  71  71  99 E3        29.97F
BOWIE          CLOUDY    73  72  96 NW3       29.97S
BRIDGEPORT     MOCLDY    74  68  81 CALM      29.97F
DECATUR        CLOUDY    73  70  91 NE6       29.96F
DENTON         CLOUDY    73  70  88 E15G23    29.92F
MCKINNEY       LGT RAIN  71  70  96 NE6       29.94F
ROCKWALL       TSTM      71  71  99 E7        29.95F
TERRELL        TSTM      73  73 100 W9G37     29.99R VSB 1/4
WAXAHACHIE     CLOUDY    79  69  73 SE5       29.95S
CLEBURNE       MOCLDY    81  73  78 S9        29.94F
GRANBURY       MOCLDY    82  69  65 CALM      29.94R
$$

TXZ083>090-098>101-113>116-127>130-139>142-154-155-310900-
WESTERN NORTH TEXAS

CITY           SKY/WX    TMP DP  RH WIND       PRES   REMARKS
WICHITA FALLS  LGT RAIN  70  67  90 N16       29.99F
WF-KICKAPOO    CLOUDY    72  67  85 N13G18    30.00F
VERNON         CLOUDY    71  64  79 N16       30.05F
ABILENE        CLOUDY    72  66  81 N16       30.04R
ABILENE-DYESS  CLOUDY    71  66  83 NE13      30.04R
BRECKENRIDGE   MOCLDY    74  66  76 N13G21    29.99R
GRAHAM         CLOUDY    72  67  84 N12G18    29.98S
MINERAL WELLS  MOCLDY    77  69  76 E7        29.92F
STEPHENVILLE   MOCLDY    80  67  64 SW6       29.98S
COMANCHE       CLOUDY    77  63  61 CALM      29.97S
BROWNWOOD      CLOUDY    75  57  53 W3        29.96F
COLEMAN        CLOUDY    78  65  65 N17       29.99R
BRADY          CLEAR     79  61  53 S6        29.98R
$$

TXZ143>147-156>162-174-175-310900-
CENTRAL TEXAS

CITY           SKY/WX    TMP DP  RH WIND       PRES   REMARKS
WACO           CLOUDY    81  66  60 S21G28    29.92F
WACO-MCGREGOR  CLOUDY    81  63  54 S20       29.94F
HILLSBORO      MOCLDY    80  71  73 S10       29.93S
CORSICANA      CLOUDY    81  71  71 S15G24    29.94F
MEXIA          CLOUDY    78  73  83 S10       29.93F
HEARNE         MOCLDY   N/A N/A N/A SE12      29.95F
CAMERON        MOCLDY    78  73  83 S13G20    29.95F
TEMPLE         CLOUDY    79  63  57 S20       29.95F
KILLEEN        MOCLDY    79  63  57 S15       29.95S
KILLEEN-SKYLRK CLOUDY    79  61  53 S12G23    29.95F
FORT HOOD      MOCLDY    80  63  55 SE10G22   29.95F
GATESVILLE     CLOUDY    81  64  57 S5        29.96F
HAMILTON       MOCLDY    80  61  52 S13G20    29.97S
LAMPASAS       MOCLDY    78  64  61 S6        29.96S
$$

TXZ095>097-106>112-122>126-135>138-148>153-164>167-310900-
EAST TEXAS

CITY           SKY/WX    TMP DP  RH WIND       PRES   REMARKS
PARIS          CLOUDY    68  63  83 SE13      29.98S
SULPHUR SPRNGS RAIN      71  68  89 S9G18     29.98S
CLARKSVILLE    CLOUDY    70  68  95 E9        29.98F
MOUNT PLEASANT CLOUDY    69  68  94 SE7       30.01R
GILMER         CLOUDY    73  68  83 SE3       30.01F
MINEOLA        RAIN      72  70  94 SE5       29.98F
TYLER          LGT RAIN  77  66  68 SE9       29.99R
LONGVIEW       CLOUDY    74  65  73 SE7       29.99S
MARSHALL       CLOUDY    74  66  75 S3        30.01F
ATHENS         CLOUDY    73  70  88 SE5       29.96S
JACKSONVILLE   CLOUDY    76  69  79 SE8       30.00R
HENDERSON      CLOUDY    74  65  74 SE7       30.00R
NACOGDOCHES    MOCLDY    73  64  73 SE6       30.00S
LUFKIN         PTCLDY    76  68  76 SE7       29.99S
$$

SUPPLEMENTAL OBSERVATIONS (CENTRAL)

CITY           SKY/WX    TMP DP  RH WIND       PRES   REMARKS
LAKE TEXOMA      N/A     70  70 100 E3          N/A
CADDO GRASSLND   N/A     70  66  88 SE3         N/A
PAT MAYSE LAKE   N/A     68  64  88 NW2         N/A
GREENVILLE       N/A     72  68  88 S8G17       N/A
LAKE LIMESTONE   N/A     79  75  89 S8          N/A
MCGREGOR         N/A     79  63  57 S17G23      N/A
TEMPLE           N/A     79  70  73 S14         N/A
$$

SUPPLEMENTAL OBSERVATIONS (WEST)

CITY           SKY/WX    TMP DP  RH WIND       PRES   REMARKS
MILLERS CREEK    N/A     70  63  78 N10G18      N/A
POSSUM KINGDOM   N/A     72  66  83 N12         N/A
LBJ GRASSLAND    N/A     73  68  83 N5          N/A
GRANBURY         N/A     81  68  65 NW3G16      N/A
COMANCHE         N/A    N/A N/A N/A W1          N/A
HAMBY            N/A     72  66  83 N9G17       N/A
$$

SUPPLEMENTAL OBSERVATIONS (EAST)

CITY           SKY/WX    TMP DP  RH WIND       PRES   REMARKS
TEXARKANA        N/A     70  66  88 CALM        N/A
LINDEN           N/A     68  64  88 E1          N/A
CADDO LAKE       N/A     70  66  88 CALM        N/A
HENDERSON        N/A     73  64  73 CALM        N/A
LUFKIN           N/A     75  72  88 MISG        N/A
N SABINE NF      N/A     72  64  78 MISG        N/A
$$

SUPPLEMENTAL OBSERVATIONS ARE A COLLECTION OF AUTOMATED INSTRUMENTS
THAT ARE MAINTAINED BY A VARIETY OF FEDERAL AND STATE AGENCIES.
CERTAIN ELEMENTS...SUCH AS HUMIDITY VALUES AND SUSTAINED WIND
SPEEDS...MAY BE APPROXIMATED.



USA.gov is the U.S. government's official web portal to all federal, state and local government web resources and services.